Regional Weather Roundup
Issued by NWS Albany, NY

Home | Current Version | Previous Version | Text Only | Print | Product List | Glossary On
Versions: 1 2 3 4 5 6 7 8 9 10 11 12 13 14 15 16 17 18 19 20 21 22 23 24 25 26 27 28 29 30 31 32 33 34 35 36 37 38 39 40 41 42 43 44 45 46 47 48 49 50
000
ASUS41 KALY 221510
RWRALY

NEW YORK STATE HOURLY WEATHER ROUNDUP
NATIONAL WEATHER SERVICE ALBANY NY
1100 AM EDT FRI AUG 22 2014

NOTE: "FAIR" INDICATES FEW OR NO CLOUDS BELOW 12,000 FEET WITH NO
SIGNIFICANT WEATHER AND/OR NO OBSTRUCTIONS TO VISIBILITY.

NYZ032-033-038>043-046>054-057>066-NYZ062>081-221600-
EAST


CITY           SKY/WX    TMP DP  RH WIND       PRES   REMARKS
ALBANY         CLOUDY    67  61  81 SE5       30.07R
GLENS FALLS    NOT AVBL
POUGHKEEPSIE   CLOUDY    69  60  73 SE7       30.06R
NEWBURGH       PTSUNNY   68  64  88 SE6       30.08S
MONTGOMERY     CLOUDY    68  63  84 S5        30.06S
WHITE PLAINS   PTSUNNY   68  62  81 E6        30.07R
ISLIP          CLOUDY    73  60  63 E7        30.05R
NEW YORK CITY  CLOUDY    72  60  66 NE10      30.05S
CENTRAL PARK   CLOUDY    72  62  71 E10       30.08S
$$

NYZ005>009-017-018-044>046-055-056-221600-
CENTRAL


CITY           SKY/WX    TMP DP  RH WIND       PRES   REMARKS
FULTON         CLOUDY    71  66  84 S5        30.01S
SYRACUSE       CLOUDY    71  67  87 CALM      30.01R
ROME           CLOUDY    70  66  87 E5        30.03S
ELMIRA         MOSUNNY   72  67  84 SW6       30.02S
BINGHAMTON     FOG       64  64 100 SE6       30.05F VSB 3/4
MONTICELLO     CLOUDY    63  61  94 S6        30.10R
$$

NYZ026>034-041>043-221600-
NORTH


CITY           SKY/WX    TMP DP  RH WIND       PRES   REMARKS
WATERTOWN      MOSUNNY   75  64  68 CALM      30.00S
FORT DRUM      NOT AVBL
MASSENA        CLOUDY    68  64  87 E8        30.05S
SARANAC LAKE   CLOUDY    66  60  81 N6        30.07R
PLATTSBURGH    CLOUDY    65  60  84 S8        30.09R
$$

NYZ001>004-010>016-019>021-221600-
WEST


CITY           SKY/WX    TMP DP  RH WIND       PRES   REMARKS
NIAGARA FALLS  CLOUDY    71  65  81 CALM      30.00S
BUFFALO        PTSUNNY   74  65  73 VRB3      30.00S
DUNKIRK        CLOUDY    75  68  78 NW9       30.00S
JAMESTOWN      CLOUDY    70  66  88 S6        30.04S
WELLSVILLE     PTSUNNY   71  64  78 CALM      30.07S
ROCHESTER      CLOUDY    73  66  78 SW5       30.01R
PENN YAN       MOSUNNY   75  66  73 CALM      30.02S
$$

             KEY
       WCI = WIND CHILL INDEX
       VSB = VISIBILITY
       HX  = HEAT INDEX
$$


USA.gov is the U.S. government's official web portal to all federal, state and local government web resources and services.